Back to catalog

STARLINK-32236

AliveCommunicationsVLEO
NORAD 60418·PAYLOAD·🇺🇸 United States

Launched Aug 10, 2024 from Cape Canaveral Space Force Station

Loading…

Next Passes (next 24 hours)

TLE

FreshSource: CelesTrak SupGP

Epoch: Sep 14, 2026, 15:03 UTC

1 60418C 24141W   26257.62756944 -.00019222  00000+0 -56792-3 0  2572
2 60418  53.1584  81.1922 0001178  89.1141 190.0441 15.34400399    19

Track STARLINK-32236 in real time with AllMySat

Download on the App Store